Location: Newark
(43.4306°N, 0.3089°E)
Time: 18:27:27
(UTC+00:00)

S-56A Canister/Altair - Pass Details

Date: 23 August 2019
Orbit: 633 x 2499 km, 38.9° (Epoch: 15 October)

Event Time Altitude Azimuth Distance (km) Brightness Sun altitude
Rises 21:34:22 0° 247° (WSW) 3,168 10.9 -25.8°
Reaches altitude 10° 21:37:00 10° 241° (WSW) 2,119 9.9 -26.1°
Enters shadow 21:38:18 18° 234° (SW) 1,626 9.2 -26.3°
Maximum altitude 21:41:23 42° 170° (S) 901 - -26.7°
Drops below altitude 10° 21:45:38 10° 99° (E) 2,046 - -27.1°
Sets 21:48:07 0° 92° (E) 3,043 - -27.4°
